F5MAP-5 Weather Reports


time (UTC)temp
F
wind
direction
speed
knots
gust
knots
rain 1hr
in
rain 24hr
in
rain mn
in
humidity
%
barometer
mb
20260507144215 61 67 2.6 7.8 0.00 0.18 0.06 69 1014.9
20260507143214 61 26 4.3 7.8 0.00 0.18 0.06 69 1015.0
20260507142214 61 77 2.6 6.1 0.00 0.18 0.06 72 1015.1
20260507141214 60 63 2.6 7.0 0.00 0.18 0.06 71 1015.1
20260507140214 60 17 2.6 6.1 0.00 0.18 0.06 72 1015.1
20260507135214 61 98 2.6 7.8 0.00 0.18 0.06 73 1015.2
20260507134214 60 32 2.6 7.8 0.00 0.18 0.06 73 1015.3
20260507133214 60 9 3.5 7.8 0.00 0.18 0.06 74 1015.4
20260507132213 60 21 0.9 6.1 0.00 0.18 0.06 74 1015.4
20260507131214 60 28 1.7 4.3 0.00 0.18 0.06 76 1015.3
20260507130214 60 19 3.5 7.0 0.00 0.18 0.06 77 1015.3
20260507125213 60 68 3.5 8.7 0.00 0.18 0.06 78 1015.4
20260507124213 59 51 3.5 8.7 0.00 0.18 0.06 79 1015.4
20260507123214 59 34 2.6 7.8 0.00 0.18 0.06 79 1015.4
20260507122213 58 22 3.5 9.6 0.00 0.18 0.06 81 1015.4
20260507121214 57 46 3.5 7.8 0.00 0.18 0.06 82 1015.3
20260507120215 57 350 4.3 7.8 0.00 0.18 0.06 84 1015.3
20260507115213 57 5 2.6 6.1 0.00 0.18 0.06 85 1015.3
20260507114213 56 14 3.5 8.7 0.00 0.18 0.06 85 1015.3
20260507113212 57 36 4.3 7.8 0.00 0.18 0.06 84 1015.3
20260507112212 57 13 4.3 8.7 0.00 0.18 0.06 85 1015.3
20260507111212 57 40 2.6 7.8 0.00 0.18 0.06 85 1015.3
20260507110212 57 51 2.6 5.2 0.00 0.18 0.06 86 1015.3
20260507105213 57 5 0.0 2.6 0.00 0.18 0.06 86 1015.2
20260507104212 57 294 0.9 1.7 0.00 0.18 0.06 88 1015.3
20260507103213 57 260 1.7 3.5 0.00 0.18 0.06 89 1015.2
20260507102212 57 268 0.9 4.3 0.00 0.18 0.06 91 1015.3
20260507101212 56 205 1.7 6.1 0.00 0.18 0.06 92 1015.3
20260507100212 56 217 3.5 7.0 0.00 0.18 0.06 92 1015.3
20260507095213 56 215 1.7 4.3 0.00 0.18 0.06 93 1015.3
20260507094213 56 266 1.7 6.1 0.00 0.18 0.06 93 1015.3
20260507093213 55 179 2.6 5.2 0.00 0.18 0.06 94 1015.2
20260507092213 55 198 1.7 5.2 0.00 0.18 0.06 94 1015.2
20260507091213 55 199 2.6 6.1 0.00 0.18 0.06 95 1015.2
20260507090213 54 181 3.5 6.1 0.00 0.18 0.06 95 1015.1
20260507085213 54 218 2.6 6.1 0.00 0.18 0.06 95 1015.1
20260507084213 53 173 2.6 5.2 0.00 0.18 0.06 95 1014.9
20260507083212 53 171 2.6 5.2 0.00 0.18 0.06 95 1015.0
20260507082213 53 205 1.7 4.3 0.00 0.18 0.06 95 1015.0
20260507081212 53 186 2.6 3.5 0.00 0.18 0.06 95 1014.9
20260507080212 53 184 2.6 3.5 0.00 0.18 0.06 96 1014.9
20260507075212 53 171 1.7 4.3 0.00 0.18 0.06 95 1014.9
20260507074212 52 189 1.7 5.2 0.00 0.18 0.06 96 1014.8
20260507073212 52 206 1.7 4.3 0.00 0.18 0.06 95 1014.7
20260507072212 52 211 2.6 4.3 0.00 0.18 0.06 95 1014.7
20260507071212 52 201 2.6 4.3 0.00 0.18 0.06 96 1014.6
20260507070212 51 207 1.7 4.3 0.00 0.18 0.06 95 1014.5
20260507065213 51 211 1.7 3.5 0.00 0.18 0.06 95 1014.4
20260507064213 51 205 2.6 5.2 0.00 0.18 0.06 95 1014.4
20260507063213 51 248 2.6 4.3 0.00 0.18 0.06 95 1014.4
20260507062213 51 239 1.7 4.3 0.00 0.18 0.06 95 1014.4
20260507061213 50 221 0.9 4.3 0.00 0.18 0.06 95 1014.3
20260507060213 50 202 1.7 4.3 0.00 0.18 0.06 95 1014.1
20260507055213 50 227 1.7 5.2 0.00 0.18 0.06 95 1014.1
20260507054212 50 231 1.7 4.3 0.00 0.18 0.06 95 1014.0
20260507053212 50 221 2.6 5.2 0.00 0.17 0.05 95 1014.0
20260507052213 50 230 1.7 5.2 0.00 0.17 0.05 95 1013.8
20260507051212 50 245 2.6 4.3 0.00 0.17 0.05 95 1013.7
20260507050212 50 229 1.7 4.3 0.00 0.17 0.05 95 1013.5
20260507045214 50 248 0.0 3.5 0.00 0.17 0.05 95 1013.4
20260507044213 50 229 1.7 4.3 0.00 0.17 0.05 95 1013.3
20260507043212 50 216 1.7 4.3 0.00 0.17 0.05 95 1013.2
20260507042212 50 237 1.7 5.2 0.01 0.17 0.05 95 1013.1
20260507041212 50 227 2.6 4.3 0.00 0.17 0.05 95 1013.1
20260507040214 50 263 2.6 5.2 0.00 0.17 0.05 95 1013.0
20260507035212 50 269 2.6 3.5 0.00 0.17 0.05 95 1012.9
20260507034212 50 244 1.7 6.1 0.00 0.17 0.05 95 1012.8
20260507033212 50 246 4.3 7.0 0.00 0.17 0.05 95 1012.7
20260507032212 50 219 2.6 6.1 0.00 0.17 0.04 95 1012.6
20260507031212 50 228 2.6 7.0 0.00 0.17 0.04 95 1012.6
20260507030212 50 226 4.3 7.8 0.00 0.17 0.04 95 1012.5
20260507025212 50 223 4.3 9.6 0.00 0.17 0.04 95 1012.5
20260507024212 50 171 3.5 8.7 0.01 0.17 0.04 95 1012.4
20260507023212 50 239 3.5 7.8 0.01 0.17 0.04 95 1012.4
20260507022212 50 210 3.5 7.8 0.01 0.17 0.04 95 1012.3
20260507021212 50 256 3.5 7.8 0.01 0.17 0.04 95 1012.2
20260507020212 50 221 4.3 9.6 0.01 0.16 0.04 95 1012.0
20260507015212 50 243 4.3 9.6 0.01 0.16 0.04 94 1012.0
20260507014212 50 225 5.2 13.0 0.01 0.16 0.04 94 1012.0
20260507013212 50 240 4.3 11.3 0.01 0.16 0.04 94 1012.0
20260507012212 50 211 6.1 12.2 0.01 0.15 0.03 94 1012.0
20260507011211 50 215 6.1 10.4 0.01 0.15 0.03 94 1011.9
20260507010212 50 242 4.3 11.3 0.01 0.15 0.03 94 1011.8
20260507005211 50 243 6.1 10.4 0.01 0.15 0.03 94 1011.8
20260507004212 50 221 6.1 12.2 0.01 0.15 0.03 94 1011.8
20260507003211 50 267 4.3 13.9 0.01 0.15 0.02 94 1011.7
20260507002212 50 227 5.2 9.6 0.01 0.15 0.02 94 1011.7
20260507001212 50 202 6.1 12.2 0.01 0.15 0.02 94 1011.7
20260507000212 50 215 5.2 8.7 0.01 0.14 0.02 94 1011.7
20260506235211 50 225 7.0 10.4 0.01 0.14 0.02 94 1011.7
20260506234211 50 189 5.2 10.4 0.00 0.14 0.02 94 1011.7
20260506233211 50 194 6.1 11.3 0.01 0.14 0.02 94 1011.8
20260506232211 50 219 7.8 11.3 0.01 0.14 0.02 94 1011.7
20260506231211 50 205 7.0 12.2 0.01 0.14 0.02 94 1011.7
20260506230211 50 194 6.1 13.0 0.01 0.13 0.01 94 1011.6
20260506225211 50 195 6.1 11.3 0.01 0.13 0.01 94 1011.6
20260506224212 50 202 5.2 11.3 0.02 0.13 0.01 94 1011.6
20260506223211 50 196 5.2 10.4 0.01 0.13 0.01 94 1011.7
20260506222210 50 178 7.0 12.2 0.01 0.13 0.00 94 1011.6
20260506221213 50 222 5.2 12.2 0.01 0.13 0.00 94 1011.5
20260506220212 50 218 6.1 13.0 0.01 0.12 0.00 94 1011.4
20260506215212 50 247 7.8 12.2 0.01 0.12 0.12 94 1011.3
20260506214211 50 221 6.1 13.0 0.00 0.12 0.12 94 1011.2
20260506213212 51 208 6.1 13.0 0.01 0.12 0.12 93 1011.2
20260506212211 51 248 7.0 14.8 0.00 0.11 0.11 93 1011.1
20260506211211 51 231 5.2 13.9 0.01 0.11 0.11 93 1011.0
20260506210211 51 203 5.2 10.4 0.01 0.11 0.11 93 1010.9
20260506205212 51 219 5.2 10.4 0.01 0.11 0.11 93 1011.0
20260506204213 51 245 7.0 11.3 0.02 0.11 0.11 93 1010.9
20260506203212 51 207 6.1 10.4 0.02 0.11 0.11 93 1010.8
20260506202212 51 190 5.2 11.3 0.02 0.11 0.11 93 1010.8
20260506201212 51 232 7.0 11.3 0.01 0.11 0.11 93 1010.8
20260506200212 51 225 7.0 11.3 0.01 0.10 0.10 93 1010.7
20260506195212 51 192 6.1 11.3 0.01 0.10 0.10 93 1010.7
20260506194211 51 210 5.2 9.6 0.01 0.10 0.10 93 1010.6
20260506193211 51 246 5.2 11.3 0.01 0.09 0.09 93 1010.5
20260506192213 52 220 3.5 9.6 0.02 0.09 0.09 93 1010.4
20260506191211 52 229 5.2 11.3 0.02 0.09 0.09 92 1010.2
20260506190211 52 192 4.3 9.6 0.02 0.09 0.09 92 1010.1
20260506185212 52 215 4.3 8.7 0.03 0.09 0.09 92 1010.1
20260506184211 52 227 5.2 10.4 0.03 0.09 0.09 92 1010.0
20260506183211 52 234 6.1 11.3 0.03 0.08 0.08 92 1009.9
20260506182211 52 233 6.1 14.8 0.03 0.08 0.08 92 1009.8
20260506181211 52 212 6.1 13.9 0.03 0.07 0.07 92 1009.7
20260506180211 52 222 6.1 12.2 0.03 0.07 0.07 92 1009.6
20260506175210 52 242 7.0 11.3 0.03 0.06 0.06 92 1009.5
20260506174210 52 269 7.0 13.0 0.03 0.06 0.06 91 1009.4
20260506173210 53 228 6.1 12.2 0.03 0.05 0.05 91 1009.3
20260506172210 53 211 5.2 11.3 0.03 0.05 0.05 91 1009.2
20260506171210 53 248 7.8 12.2 0.03 0.04 0.04 91 1009.2
20260506170210 53 237 5.2 10.4 0.03 0.04 0.04 91 1009.1
20260506165210 53 221 4.3 10.4 0.03 0.03 0.03 91 1009.0
20260506164210 53 236 6.1 11.3 0.03 0.03 0.03 90 1009.0
20260506163210 54 244 7.0 12.2 0.02 0.02 0.02 90 1008.9
20260506162210 54 178 7.0 11.3 0.02 0.02 0.02 90 1008.9
20260506161210 54 206 6.1 11.3 0.01 0.01 0.01 90 1008.9
20260506160210 54 243 7.8 13.9 0.01 0.01 0.01 89 1008.9
20260506155210 54 221 5.2 10.4 0.00 0.00 0.00 89 1008.9
20260506154210 55 213 5.2 11.3 0.00 0.00 0.00 89 1008.8
20260506153210 55 204 5.2 9.6 0.00 0.00 0.00 88 1008.7
20260506152210 55 234 6.1 10.4 0.00 0.00 0.00 88 1008.7
20260506151210 55 199 4.3 10.4 0.00 0.00 0.00 87 1008.6
20260506150209 55 227 5.2 13.9 0.00 0.00 0.00 87 1008.6
20260506145212 55 250 6.1 11.3 0.00 0.00 0.00 87 1008.5